Location: Table Mountain
(47.2500°N, 120.5778°W)
Time: 05:05:23
(UTC-08:00)

N. Korean satellite - Pass Details

Date: 13 October 2017
Orbit: 461 x 513 km, 97.2° (Epoch: 16 December)

Event Time Altitude Azimuth Distance (km) Brightness Sun altitude
Rises 19:59:07 0° 204° (SSW) 2,541 10.4 -18.0°
Reaches altitude 10° 20:01:46 10° 226° (SW) 1,655 9.8 -18.4°
Maximum altitude 20:04:08 17° 268° (W) 1,283 9.7 -18.8°
Drops below altitude 10° 20:06:30 10° 310° (NW) 1,646 10.1 -19.2°
Sets 20:09:07 0° 332° (NNW) 2,520 10.7 -19.7°
